SCP
1 1 0 0 1 1 2 2 1 1 1 1 1 0 0 0 0 0 0 0 0 0 0 0 0 0 0 0 0 0 0 0 0 0 0 0 0 0
0 1 1 1 1 1 1 1 1 1 1 0 0 0 0 0 0 0 0 0 0 0 0 0 0 0 0 0 0 0 0 0 0 0 0 0 0 0
0 0 0 1 1 0 0 0 0 0 1 0 0 0 0 0 0 0 0 0 0 0 0 0 0 0 0 0 0 0 0 0 0 0 0 0 0 0
0 0 0 0 0 0 0 0 0 0 0 0 0 0 0 0 0 0 0 0 0 0 0 0 0 0 0 0 0 0 0 0 0 0 0 0 0 0
0 0 0 0 0 0 0 0 0 0 0 0 0 0 0 0 0 0 0 0 0 0 0 0 0 0 0 0 0 0 0 0 0 0 0 0 0 0
0 0 0 0 0 0 0 0 0 0 0 0 0 0 0 0 0 0 0 0 0 0 0 0 0 0 0 0 0 0 0 0 0 0 0 0 0 0
0 0 0 0 0 0 0 0 0 0 0 0 0 0 0 0 0 0 0 0 0 0 0 0 0 0 0 0 0 0 0 0 0 0 0 0 0 0
0 0 0 0 0 0 0 0 0 0 0 0 0 0 0 0 0 0 0 0 0 -0 -0 0 0 0 0 0 0 0 0 0 0 0 0 0 0 0
0 0 0 0 0 0 0 0 0 0 0 0 0 0 0 0 0 0 -0 -0 -0 0 0 0 0 0 0 0 0 0 0 0 0 0 0 0 0 0
0 0 0 0 0 0 0 0 0 0 -0 -0 -0 -0 -0 -0 -0 0 0 0 0 0 -0 0 0 0 0 0 0 0 0 0 0 0 0 0 0 0
0 0 0 0 0 0 0 0 0 0 -0 -0 -0 -0 0 0 -0 0 0 0 0 0 0 0 0 0 0 0 0 0 0 0 0 0 0 0 0 -0
-0 -0 -0 0 0 0 0 0 0 -0 0 -0 -0 0 -0 -0 0 0 -0 0 0 0 0 0 0 0 0 0 0 -0 0 0 0 0 0 -0 -0 -0
0 0 0 0 -0 -0 0 0 -0 -0 0 0 0 0 0 -0 -0 -0 -0 -0 0 0 0 0 0 0 0 0 -0 -0 0 0 0 0 0 -0 -0 -0
0 0 0 -0 -0 0 0 0 -0 -0 0 -0 -0 -0 -0 -0 -0 -0 0 0 0 0 0 0 0 0 0 0 0 0 0 0 0 0 0 -0 -0 0
0 -0 0 -0 0 0 0 0 0 0 -0 -0 -0 -0 -0 -0 0 0 0 -0 0 0 0 0 0 0 0 0 0 0 0 0 0 0 0 -0 0 0
-0 0 -0 -0 -0 0 0 -0 -0 -0 -0 -0 -0 -0 0 0 -0 -0 0 0 0 0 0 0 0 -0 0 -0 0 0 0 0 0 0 0 0 0 0
0 0 0 -0 0 0 0 -0 0 -0 -0 -0 -0 -0 -0 0 0 -0 0 -0 0 0 0 -0 0 -0 -0 -0 0 0 0 0 0 0 0 0 0 0
-0 -0 0 0 0 -0 -0 0 0 -0 -0 -0 -0 -0 -0 0 0 0 0 0 0 0 0 -0 0 0 0 0 -0 0 0 0 0 0 0 0 0 0
0 0 0 0 -0 0 0 0 -0 -0 -0 -0 -0 -0 -0 0 0 0 0 0 0 0 0 -0 -0 -0 0 0 0 -0 0 0 0 0 0 0 0 0
0 -0 -0 0 0 0 0 -0 -0 -0 -0 -0 -0 -0 -0 0 0 0 0 0 0 -0 -0 0 -0 -0 0 0 0 0 -0 0 0 0 0 0 0 0
0 0 0 0 -0 -0 -0 -0 -0 -0 -0 -0 -0 -0 -0 -0 0 0 0 0 0 0 -0 -0 -0 0 0 0 0 0 0 -0 -0 0 0 0 0 0
0 0 -0 -0 -0 -0 -0 -0 -0 -0 -0 -0 -0 -0 -0 -0 0 0 0 0 -0 -0 -0 -0 -0 -0 0 0 0 0 0 0 -0 -0 -0 0 0 0
-0 -0 -0 -0 -0 -0 -0 -0 -0 -0 -0 -0 -0 -0 -0 0 -0 -0 0 -0 -0 -0 -0 -0 0 0 0 0 0 0 0 0 0 0 0 -0 -0 -0
Wind_Speed_500mb
55 58 62 62 61 56 60 62 64 65 63 52 49 48 52 52 48 47 57 67 88 94 81 49 48 45 40 20 13 26 37 39 39 42 45 40 35 37
52 57 62 64 65 60 60 63 64 62 62 49 49 55 54 44 40 53 62 64 60 53 41 32 27 22 19 21 22 29 39 42 42 45 45 35 35 40
50 54 61 57 58 64 64 63 63 56 60 48 48 43 37 35 39 45 44 31 18 14 17 21 21 22 19 14 22 29 37 40 43 45 35 31 35 35
55 63 57 51 47 50 47 48 43 41 41 44 41 31 29 29 36 42 35 24 17 12 10 10 10 4 4 12 24 30 38 37 38 28 26 28 29 30
56 49 35 29 31 36 31 30 30 30 29 31 32 27 28 29 36 31 25 21 15 11 12 8 4 7 13 18 26 29 28 26 21 21 19 24 25 25
36 26 25 26 18 19 20 19 18 15 13 15 24 37 39 34 27 28 27 21 19 10 4 5 4 13 12 15 17 19 15 11 10 14 18 21 20 21
16 14 4 8 10 9 7 11 11 9 9 18 34 42 41 36 29 26 26 20 15 8 12 14 9 12 15 4 13 12 7 5 10 14 16 20 20 16
3 18 25 31 32 29 27 27 30 31 34 38 44 41 35 31 29 21 14 16 10 7 10 3 3 7 6 9 14 10 5 7 9 12 17 18 16 13
25 25 27 30 34 37 42 48 49 45 40 38 38 34 31 26 22 14 3 7 7 4 4 8 3 1 4 8 10 10 5 5 9 14 18 18 15 13
30 30 29 32 35 38 42 48 48 44 37 32 28 24 21 19 15 16 17 20 18 17 10 3 10 1 2 9 10 8 7 6 9 15 20 15 13 15
35 32 31 33 39 35 36 44 44 48 54 53 48 42 32 25 24 18 12 9 6 15 19 8 14 2 4 9 12 10 9 6 9 16 17 17 15 18
41 37 35 36 42 39 37 37 40 36 36 37 38 37 37 35 29 22 19 16 12 11 23 11 12 4 3 12 10 6 9 9 10 17 18 18 16 20
43 37 47 40 37 42 41 37 37 28 28 26 26 27 27 28 26 26 25 24 19 17 22 12 13 8 2 9 6 8 10 11 12 15 19 16 17 16
53 53 48 47 51 53 53 48 39 29 27 28 27 27 25 23 23 27 31 30 28 30 33 32 14 11 8 7 8 8 12 14 15 16 16 15 17 20
53 54 45 45 45 47 46 39 31 27 26 26 26 24 22 21 25 26 25 27 25 19 27 33 33 14 11 14 13 10 12 14 15 14 19 12 16 18
43 42 42 41 39 39 31 33 34 31 27 25 23 22 20 22 21 19 15 15 19 22 32 30 34 26 13 14 12 10 8 8 12 16 19 18 20 20
34 32 30 30 30 31 31 29 26 26 27 25 22 21 20 21 19 21 19 16 19 24 31 27 30 25 20 10 15 16 18 19 19 17 20 21 26 26
40 38 35 33 32 31 29 27 26 27 27 26 25 24 23 22 21 22 18 18 18 25 24 30 27 20 11 22 21 19 19 20 18 18 20 26 34 34
41 38 36 34 32 30 29 29 29 29 27 26 25 23 21 21 26 25 26 15 16 19 23 28 27 25 18 27 25 21 23 25 24 24 27 32 39 40
38 38 36 33 32 32 30 29 28 27 27 26 25 24 23 22 22 22 24 21 14 17 19 24 25 23 19 31 34 24 19 26 25 29 32 34 41 40
38 37 35 34 33 31 31 29 28 29 30 28 26 25 24 22 20 21 20 20 17 21 21 23 21 20 11 27 37 31 28 23 27 36 40 41 42 39
37 37 36 35 33 31 30 30 30 30 30 29 26 24 23 23 21 23 23 23 16 16 19 18 20 23 23 30 37 37 31 27 30 37 35 30 29 34
37 37 35 33 33 34 33 32 31 30 30 31 30 27 26 24 23 24 27 24 14 14 11 13 21 32 36 30 34 39 39 38 29 34 44 36 37 40
Wind_Direction_500mb
278 285 287 280 280 272 266 272 272 278 281 285 280 275 286 278 270 255 249 246 234 221 218 204 191 194 200 185 204 242 260 274 283 285 290 291 287 283
280 285 284 284 283 275 272 272 275 278 281 281 277 277 278 276 261 242 224 215 207 203 202 206 203 197 182 189 209 245 263 270 279 287 289 286 284 284
282 285 289 288 280 279 279 279 280 274 270 265 270 269 263 252 237 210 200 192 171 165 187 184 185 178 160 175 224 254 265 272 282 286 284 282 287 289
291 294 292 282 284 285 286 284 280 279 271 262 254 241 237 223 205 198 194 186 148 146 156 139 116 127 219 254 255 258 265 278 283 283 284 286 291 294
301 295 287 282 283 284 281 283 282 276 267 261 238 208 190 194 187 175 170 177 180 166 133 137 177 269 268 258 260 262 274 283 283 288 300 300 295 304
293 275 286 289 286 297 305 308 308 305 288 230 186 163 163 150 158 151 149 150 143 157 158 81 289 287 263 260 276 283 292 286 301 317 312 313 308 316
269 298 351 23 17 0 19 3 15 45 102 144 145 138 134 140 141 139 138 130 122 121 49 23 306 294 290 339 288 323 326 340 320 316 328 327 327 326
165 87 72 65 61 59 75 84 86 87 104 122 130 132 132 133 127 124 95 73 58 47 100 284 169 219 234 248 287 316 354 342 330 341 347 344 340 331
113 101 89 81 79 80 81 83 83 87 95 108 112 109 113 109 94 66 75 91 97 56 83 25 70 278 246 295 318 334 1 334 360 4 359 354 357 349
124 102 102 99 94 90 88 84 77 77 80 86 91 96 98 87 95 102 84 64 46 34 42 24 7 265 287 329 336 346 346 7 20 4 7 12 26 33
102 100 100 100 98 97 92 90 83 78 76 73 72 71 78 96 106 75 38 4 45 17 15 29 348 355 262 331 332 1 10 25 31 15 28 32 45 60
101 106 105 106 104 98 94 92 85 76 64 63 57 58 58 63 74 71 52 50 31 11 1 26 0 21 256 291 320 360 29 53 64 56 48 48 69 78
102 95 94 95 105 109 102 94 88 75 70 69 67 63 61 59 57 55 61 55 50 38 14 20 8 34 334 288 346 35 59 79 82 56 48 61 78 94
107 98 95 96 94 88 76 71 69 67 70 68 66 62 57 58 54 54 54 53 45 47 33 27 24 35 16 15 42 61 61 97 82 66 55 66 86 85
105 98 95 95 90 80 72 66 66 64 62 60 53 49 46 47 37 31 33 44 40 28 25 20 32 47 42 43 43 56 92 98 91 70 64 73 94 97
100 94 88 87 81 66 64 60 59 58 60 56 54 52 45 33 38 33 34 30 23 22 27 22 20 27 42 48 57 76 112 108 104 83 69 81 96 94
101 94 91 84 76 67 60 55 54 50 47 47 47 44 41 30 33 26 26 39 25 27 15 27 5 20 37 63 77 89 96 116 113 92 94 90 101 93
94 86 79 71 67 63 57 53 50 44 41 38 38 38 33 27 24 25 26 31 25 24 22 22 22 22 54 67 83 93 101 115 111 103 99 108 105 97
84 80 74 68 63 58 53 47 41 37 36 34 32 33 33 30 29 19 30 26 28 19 17 27 27 34 66 75 77 85 106 105 101 103 108 106 101 100
78 73 69 64 59 54 48 43 39 36 31 30 30 32 32 29 25 32 21 26 41 24 22 34 33 30 50 90 81 75 101 116 106 109 108 109 105 104
72 70 66 60 54 49 43 38 37 31 33 29 27 28 32 31 30 34 22 24 50 51 47 37 30 21 83 105 98 97 96 95 102 117 113 117 111 105
71 67 62 56 53 49 44 39 36 34 30 28 26 29 33 32 27 33 24 26 43 32 52 45 44 50 86 99 100 102 99 95 108 112 107 108 110 109
69 66 62 58 52 47 43 41 38 35 32 29 25 27 31 36 29 28 20 27 55 46 44 63 66 69 74 87 99 104 107 110 120 118 98 93 101 107
Wind_Speed_850mb
55 58 62 62 61 56 60 62 64 65 63 52 49 48 52 52 48 47 57 67 88 94 81 49 48 45 40 20 13 26 37 39 39 42 45 40 35 37
52 57 62 64 65 60 60 63 64 62 62 49 49 55 54 44 40 53 62 64 60 53 41 32 27 22 19 21 22 29 39 42 42 45 45 35 35 40
50 54 61 57 58 64 64 63 63 56 60 48 48 43 37 35 39 45 44 31 18 14 17 21 21 22 19 14 22 29 37 40 43 45 35 31 35 35
55 63 57 51 47 50 47 48 43 41 41 44 41 31 29 29 36 42 35 24 17 12 10 10 10 4 4 12 24 30 38 37 38 28 26 28 29 30
56 49 35 29 31 36 31 30 30 30 29 31 32 27 28 29 36 31 25 21 15 11 12 8 4 7 13 18 26 29 28 26 21 21 19 24 25 25
36 26 25 26 18 19 20 19 18 15 13 15 24 37 39 34 27 28 27 21 19 10 4 5 4 13 12 15 17 19 15 11 10 14 18 21 20 21
16 14 4 8 10 9 7 11 11 9 9 18 34 42 41 36 29 26 26 20 15 8 12 14 9 12 15 4 13 12 7 5 10 14 16 20 20 16
3 18 25 31 32 29 27 27 30 31 34 38 44 41 35 31 29 21 14 16 10 7 10 3 3 7 6 9 14 10 5 7 9 12 17 18 16 13
25 25 27 30 34 37 42 48 49 45 40 38 38 34 31 26 22 14 3 7 7 4 4 8 3 1 4 8 10 10 5 5 9 14 18 18 15 13
30 30 29 32 35 38 42 48 48 44 37 32 28 24 21 19 15 16 17 20 18 17 10 3 10 1 2 9 10 8 7 6 9 15 20 15 13 15
35 32 31 33 39 35 36 44 44 48 54 53 48 42 32 25 24 18 12 9 6 15 19 8 14 2 4 9 12 10 9 6 9 16 17 17 15 18
41 37 35 36 42 39 37 37 40 36 36 37 38 37 37 35 29 22 19 16 12 11 23 11 12 4 3 12 10 6 9 9 10 17 18 18 16 20
43 37 47 40 37 42 41 37 37 28 28 26 26 27 27 28 26 26 25 24 19 17 22 12 13 8 2 9 6 8 10 11 12 15 19 16 17 16
53 53 48 47 51 53 53 48 39 29 27 28 27 27 25 23 23 27 31 30 28 30 33 32 14 11 8 7 8 8 12 14 15 16 16 15 17 20
53 54 45 45 45 47 46 39 31 27 26 26 26 24 22 21 25 26 25 27 25 19 27 33 33 14 11 14 13 10 12 14 15 14 19 12 16 18
43 42 42 41 39 39 31 33 34 31 27 25 23 22 20 22 21 19 15 15 19 22 32 30 34 26 13 14 12 10 8 8 12 16 19 18 20 20
34 32 30 30 30 31 31 29 26 26 27 25 22 21 20 21 19 21 19 16 19 24 31 27 30 25 20 10 15 16 18 19 19 17 20 21 26 26
40 38 35 33 32 31 29 27 26 27 27 26 25 24 23 22 21 22 18 18 18 25 24 30 27 20 11 22 21 19 19 20 18 18 20 26 34 34
41 38 36 34 32 30 29 29 29 29 27 26 25 23 21 21 26 25 26 15 16 19 23 28 27 25 18 27 25 21 23 25 24 24 27 32 39 40
38 38 36 33 32 32 30 29 28 27 27 26 25 24 23 22 22 22 24 21 14 17 19 24 25 23 19 31 34 24 19 26 25 29 32 34 41 40
38 37 35 34 33 31 31 29 28 29 30 28 26 25 24 22 20 21 20 20 17 21 21 23 21 20 11 27 37 31 28 23 27 36 40 41 42 39
37 37 36 35 33 31 30 30 30 30 30 29 26 24 23 23 21 23 23 23 16 16 19 18 20 23 23 30 37 37 31 27 30 37 35 30 29 34
37 37 35 33 33 34 33 32 31 30 30 31 30 27 26 24 23 24 27 24 14 14 11 13 21 32 36 30 34 39 39 38 29 34 44 36 37 40
Wind_Direction_850mb
278 285 287 280 280 272 266 272 272 278 281 285 280 275 286 278 270 255 249 246 234 221 218 204 191 194 200 185 204 242 260 274 283 285 290 291 287 283
280 285 284 284 283 275 272 272 275 278 281 281 277 277 278 276 261 242 224 215 207 203 202 206 203 197 182 189 209 245 263 270 279 287 289 286 284 284
282 285 289 288 280 279 279 279 280 274 270 265 270 269 263 252 237 210 200 192 171 165 187 184 185 178 160 175 224 254 265 272 282 286 284 282 287 289
291 294 292 282 284 285 286 284 280 279 271 262 254 241 237 223 205 198 194 186 148 146 156 139 116 127 219 254 255 258 265 278 283 283 284 286 291 294
301 295 287 282 283 284 281 283 282 276 267 261 238 208 190 194 187 175 170 177 180 166 133 137 177 269 268 258 260 262 274 283 283 288 300 300 295 304
293 275 286 289 286 297 305 308 308 305 288 230 186 163 163 150 158 151 149 150 143 157 158 81 289 287 263 260 276 283 292 286 301 317 312 313 308 316
269 298 351 23 17 0 19 3 15 45 102 144 145 138 134 140 141 139 138 130 122 121 49 23 306 294 290 339 288 323 326 340 320 316 328 327 327 326
165 87 72 65 61 59 75 84 86 87 104 122 130 132 132 133 127 124 95 73 58 47 100 284 169 219 234 248 287 316 354 342 330 341 347 344 340 331
113 101 89 81 79 80 81 83 83 87 95 108 112 109 113 109 94 66 75 91 97 56 83 25 70 278 246 295 318 334 1 334 360 4 359 354 357 349
124 102 102 99 94 90 88 84 77 77 80 86 91 96 98 87 95 102 84 64 46 34 42 24 7 265 287 329 336 346 346 7 20 4 7 12 26 33
102 100 100 100 98 97 92 90 83 78 76 73 72 71 78 96 106 75 38 4 45 17 15 29 348 355 262 331 332 1 10 25 31 15 28 32 45 60
101 106 105 106 104 98 94 92 85 76 64 63 57 58 58 63 74 71 52 50 31 11 1 26 0 21 256 291 320 360 29 53 64 56 48 48 69 78
102 95 94 95 105 109 102 94 88 75 70 69 67 63 61 59 57 55 61 55 50 38 14 20 8 34 334 288 346 35 59 79 82 56 48 61 78 94
107 98 95 96 94 88 76 71 69 67 70 68 66 62 57 58 54 54 54 53 45 47 33 27 24 35 16 15 42 61 61 97 82 66 55 66 86 85
105 98 95 95 90 80 72 66 66 64 62 60 53 49 46 47 37 31 33 44 40 28 25 20 32 47 42 43 43 56 92 98 91 70 64 73 94 97
100 94 88 87 81 66 64 60 59 58 60 56 54 52 45 33 38 33 34 30 23 22 27 22 20 27 42 48 57 76 112 108 104 83 69 81 96 94
101 94 91 84 76 67 60 55 54 50 47 47 47 44 41 30 33 26 26 39 25 27 15 27 5 20 37 63 77 89 96 116 113 92 94 90 101 93
94 86 79 71 67 63 57 53 50 44 41 38 38 38 33 27 24 25 26 31 25 24 22 22 22 22 54 67 83 93 101 115 111 103 99 108 105 97
84 80 74 68 63 58 53 47 41 37 36 34 32 33 33 30 29 19 30 26 28 19 17 27 27 34 66 75 77 85 106 105 101 103 108 106 101 100
78 73 69 64 59 54 48 43 39 36 31 30 30 32 32 29 25 32 21 26 41 24 22 34 33 30 50 90 81 75 101 116 106 109 108 109 105 104
72 70 66 60 54 49 43 38 37 31 33 29 27 28 32 31 30 34 22 24 50 51 47 37 30 21 83 105 98 97 96 95 102 117 113 117 111 105
71 67 62 56 53 49 44 39 36 34 30 28 26 29 33 32 27 33 24 26 43 32 52 45 44 50 86 99 100 102 99 95 108 112 107 108 110 109
69 66 62 58 52 47 43 41 38 35 32 29 25 27 31 36 29 28 20 27 55 46 44 63 66 69 74 87 99 104 107 110 120 118 98 93 101 107